Regional Weather Roundup
Issued by NWS

Home | Current Version | Previous Version | Graphics & Text | Print | Product List | Glossary On
Versions: 1 2 3 4 5 6 7 8 9 10 11 12 13 14 15 16 17 18 19 20 21 22 23 24 25 26 27 28 29 30 31 32 33 34 35 36 37 38 39 40 41 42 43 44 45 46 47 48 49 50
000
ASUS43 KLOT 230304
RWRIL

ILLINOIS REGIONAL WEATHER ROUNDUP
NATIONAL WEATHER SERVICE CHICAGO/ROMEOVILLE IL
1000 PM CDT SUN OCT 22 2017

NOTE: "FAIR" INDICATES FEW OR NO CLOUDS BELOW 12,000 FEET WITH NO
SIGNIFICANT WEATHER AND/OR OBSTRUCTIONS TO VISIBILITY.

* THESE STATIONS ARE NOT UNDER NWS QUALITY CONTROL. THEY ALSO MAY NOT
  REPORT WEATHER SUCH AS PRECIPITATION OR FOG.

ILZ001-002-007-009-015-016-024-230400-
NORTHWEST ILLINOIS

CITY           SKY/WX    TMP DP  RH WIND       PRES   REMARKS
MOLINE         CLOUDY    51  49  92 CALM      30.04F
STERLING*      CLOUDY    50  48  93 CALM        N/A
SAVANNA*       CLOUDY    49  49  99 CALM      30.06S
$$

ILZ003-004-008-010-011-017-018-230400-
NORTH CENTRAL ILLINOIS

CITY           SKY/WX    TMP DP  RH WIND       PRES   REMARKS
ROCKFORD       CLOUDY    51  47  86 CALM      30.08R
FREEPORT*      CLOUDY    48  47  95 CALM      30.07S
ROCHELLE*      CLOUDY    50  49  97 CALM      30.06F
DE KALB*       LGT RAIN  50  49  97 NW3       30.07R
PERU*          LGT RAIN  50  48  92 N7        30.04F
$$

ILZ005-006-012>014-019>023-230400-
NORTHEAST ILLINOIS

CITY           SKY/WX    TMP DP  RH WIND       PRES   REMARKS
CHICAGO-OHARE  LGT RAIN  52  50  93 NW7       30.04R
CHICAGO-MIDWAY LGT RAIN  53  53 100 N8        30.03R
AURORA         LGT RAIN  51  51 100 NW3       30.06S FOG
LANSING*       HVY RAIN  53  53 100 N5        30.02S
JOLIET*        LGT RAIN  53  53  99 N6        30.04F
WAUKEGAN       LGT RAIN  51  50  96 CALM      30.04S
DUPAGE AIRPORT LGT RAIN  51  51 100 N5        30.05R
KANKAKEE*      HVY RAIN  52  52  99 N9        30.02F
WHEELING       CLOUDY    52  51  97 NW6       30.05S
MORRIS*        RAIN      52  50  95 N3        30.03F
ROMEOVILLE*    RAIN      51  50  97 NW7       30.05R
NORTHERLY ISL    N/A     54  52  93 N7          N/A
$$

LMZ740>746-230400-
SOUTHERN LAKE MICHIGAN

STATION/POSITION SKY/WX   TEMP    WIND        PRES    VSBY  WAVE
                          AIR SEA DIR/SP/G                  HT/PER
                          (F)     (DEG/KT/KT) (MB)    (MI)  (FT/S)
SOUTHERN BUOY              55 59   20/ 16/ 17 1016.2          5/ 6
WILMETTE HARBOR            54 57  340/ 12/ 16   N/A           4/ 4
HARRISON CRIB              56      20/ 13/ 14   N/A
BURNHAM HARBOR             54     340/  7/ 13   N/A
CALUMET HARBOR             54      10/  7/ 10 1016.2R
BURNS HARBOR               56      30/ 14/ 16 1016.9S
MICHIGAN CITY              56      10/ 15/ 16   N/A
MICHIGAN CITY 6N           56 58   30/ 12/ 16   N/A           6/ 6
ST. JOSEPH                 57 59   50/ 12/ 16 1016.3F         6/ 6
$$

ILZ025>027-034>036-040-047-049-050-058-095>099-230400-
WEST-CENTRAL ILLINOIS

CITY           SKY/WX    TMP DP  RH WIND       PRES   REMARKS
QUINCY         CLOUDY    51  50  96 CALM      30.06S
MACOMB*        CLOUDY    51  49  95 CALM      30.07F
JACKSONVILLE*  CLOUDY    51  49  95 N9        30.03F
PITTSFIELD*    MOCLDY    52  50  93 NW8       30.06F
$$

ILZ028>032-037-038-041>044-048-051>054-059>061-230400-
CENTRAL ILLINOIS

CITY           SKY/WX    TMP DP  RH WIND       PRES   REMARKS
PONTIAC        LGT RAIN  52  51  98 N8        30.03F
BLOOMINGTON    LGT RAIN  51  50  96 N12       30.02F
DECATUR        RAIN      52  51  97 N10       30.00F FOG
PEORIA         LGT RAIN  52  51  97 N6        30.04F
LACON*         DRIZZLE   51  50  99 N5        30.03F
LINCOLN*       LGT RAIN  52  52 100 N7        30.02F
SPRINGFIELD    LGT RAIN  53  52  96 N9        30.02F
TAYLORVILLE    RAIN      51  51 100 N10       30.01F
$$

ILZ033-039-045-046-055>057-062-063-230400-
EAST-CENTRAL ILLINOIS

CITY           SKY/WX    TMP DP  RH WIND       PRES   REMARKS
CHAMPAIGN      LGT RAIN  54  51  90 N12       29.99S
DANVILLE*      HVY RAIN  54  54  99 N3        29.96F
RANTOUL*       RAIN      55  54  97 N9        29.99S
MATTOON        RAIN      53  53 100 N10       29.97F FOG
PARIS*         RAIN      55  55 100 N5        29.98F
$$

ILZ079-100>102-230400-
SOUTHWEST ILLINOIS

CITY           SKY/WX    TMP DP  RH WIND       PRES   REMARKS
ALTON          LGT RAIN  52  52 100 N12       30.01F
BELLEVILLE     LGT RAIN  54  50  87 NW7       30.02F
CAHOKIA*       LGT RAIN  54  50  86 NW13      30.01F
SPARTA*        LGT RAIN  52  52  99 N9        29.99S
$$

ILZ064>066-069>071-074>076-080>082-084>086-088>090-092>094-230400-
SOUTH-CENTRAL ILLINOIS

CITY           SKY/WX    TMP DP  RH WIND       PRES   REMARKS
CARBONDALE     LGT RAIN  54  54 100 N8        29.94F
CAIRO*         HVY RAIN  55  55  98 NW9       29.93S
EFFINGHAM*     HVY RAIN  54  54 100 N6        29.98F
MARION         LGT RAIN  56  55  98 N5        29.94F
MT. VERNON     LGT RAIN  55  54  96 N7        29.95F
CENTRALIA*     RAIN      55  54  99 N10       29.96S
SALEM*         HVY RAIN  55  53  92 N10       29.96S
METROPOLIS*    RAIN      58  57  97 N9        29.91F
$$

ILZ067-068-072-073-078-083-087-091-230400-
SOUTHEAST ILLINOIS

CITY           SKY/WX    TMP DP  RH WIND       PRES   REMARKS
LAWRENCEVILLE  LGT RAIN  65  64  97 W3        29.95S FOG
FLORA*         RAIN      56  55  95 N8        29.89F
FAIRFIELD*     RAIN      56  56 100 N6        29.93S
HARRISBURG*    LGT RAIN  58  58  99 N5        29.93F
ROBINSON*      LGT RAIN  58  58 100 N3        29.96F
CARMI*         RAIN      62  62 100 NE7       29.92F
$$

ABBREVIATIONS USED IN REMARKS
   TC - TEMPERATURE IN CELSIUS
  WCI - WIND CHILL INDEX
   HX - HEAT INDEX
  VSB - VISIBILITY
$$





USA.gov is the U.S. government's official web portal to all federal, state and local government web resources and services.